GFSMW_con_3kmhel_336.txt.gz
Helicity
49 114 297 245 277 274 260 168 247 171 169 132 173 109 118 112 94 114 67 66 70 81 131 141 75 49 55 57 92 52 101 98 138 75 38 18 -3 16 2 20 24 38 37
139 198 268 297 313 291 248 278 248 173 141 123 104 87 102 87 118 99 82 102 64 72 86 80 37 53 129 136 98 90 105 110 32 28 20 32 3 -17 23 46 52 58 49
308 242 327 274 299 300 264 279 245 184 139 112 82 94 137 167 146 108 96 79 66 52 54 48 9 58 141 146 146 109 133 62 -42 -19 49 37 46 37 22 30 69 53 66
242 196 211 271 285 261 251 261 243 206 148 74 116 173 178 135 91 83 102 81 78 75 54 38 43 111 144 151 111 75 33 52 17 -27 -7 25 23 10 38 82 56 50 61
230 243 248 266 262 258 242 297 266 242 105 47 198 180 125 103 105 146 115 99 87 62 49 56 94 149 155 115 70 29 22 34 41 26 18 19 17 27 35 71 32 68 60
367 177 210 233 250 261 248 273 225 189 64 145 184 136 109 157 158 134 113 118 100 84 61 70 111 114 128 90 52 57 36 41 30 29 23 33 33 21 46 67 35 74 75
193 228 206 257 239 219 187 185 233 217 133 153 163 88 182 136 135 103 102 117 104 88 98 112 121 70 112 77 86 78 62 55 53 70 55 37 29 48 42 100 113 147 75
252 211 111 187 211 182 173 139 136 30 75 184 130 139 187 151 116 78 98 99 77 83 91 117 101 93 151 102 101 80 66 56 70 69 78 76 52 51 71 91 106 106 70
297 253 297 145 252 206 166 176 114 118 120 169 176 196 179 135 83 43 103 73 70 108 86 75 114 120 135 135 124 90 88 108 105 103 112 94 77 77 90 103 107 71 89
286 139 174 164 185 250 212 186 154 211 189 140 129 135 118 84 66 97 86 103 119 83 101 115 114 111 113 121 139 140 130 133 117 88 104 91 77 72 75 84 91 92 141
326 224 120 132 180 250 292 238 187 182 128 160 107 120 102 90 98 129 106 135 131 119 101 120 112 115 116 128 150 132 127 123 93 103 111 96 76 74 87 99 95 111 134
314 250 200 196 212 256 287 266 208 229 119 153 134 128 120 144 156 111 134 159 120 95 105 127 113 112 119 131 136 126 119 131 130 115 118 97 108 107 99 115 106 102 152
294 186 183 117 235 272 297 230 233 266 143 172 170 149 158 171 148 132 157 148 125 101 126 127 124 121 121 138 129 145 142 124 123 118 106 105 98 87 86 77 83 97 124
324 247 260 206 200 226 254 270 260 307 211 181 170 178 190 179 152 157 172 150 131 126 130 136 138 146 140 149 150 167 150 151 131 128 118 96 104 102 85 94 98 93 103
184 198 170 182 168 205 192 198 290 308 265 245 229 205 188 181 190 193 177 154 147 146 150 155 163 171 148 141 170 169 182 162 178 173 176 167 183 185 139 82 83 81 85
206 136 153 143 171 164 183 198 245 306 275 218 201 220 195 197 210 213 200 191 177 170 167 172 191 181 147 160 189 201 185 190 180 176 192 146 164 171 166 173 192 124 84
309 215 123 125 176 151 158 215 258 245 216 242 223 240 210 223 256 270 234 220 201 199 188 184 208 166 160 221 210 194 169 183 168 180 165 124 118 130 131 144 143 137 134
212 452 394 160 136 191 207 235 213 222 218 235 260 284 242 261 331 289 261 225 214 206 208 211 202 168 203 234 232 180 176 177 158 188 150 136 139 122 127 123 128 123 125
274 238 210 356 77 153 200 217 210 193 195 211 285 270 269 326 334 322 281 242 242 227 222 220 205 190 229 200 223 197 184 183 173 195 147 174 136 133 124 115 126 132 131
274 262 202 216 129 117 106 147 108 139 179 215 248 249 326 270 306 294 268 263 234 218 220 196 186 180 230 170 200 203 198 200 208 199 169 164 145 148 122 107 129 135 132
384 487 303 333 219 82 50 35 114 158 185 229 258 276 271 227 224 251 260 245 215 204 202 194 177 158 231 171 173 178 194 215 225 216 222 197 179 154 133 108 140 116 155
483 553 496 212 221 136 87 44 80 128 154 190 196 180 210 196 227 220 212 204 204 196 198 176 159 143 223 205 145 154 131 229 221 222 204 211 200 172 151 163 164 185 205
333 583 601 286 254 80 67 108 135 182 198 182 177 175 186 190 180 172 167 183 164 170 168 176 183 184 216 206 179 146 77 173 247 201 224 249 207 214 195 198 189 194 205
255 313 405 479 300 363 241 295 145 143 185 218 224 257 211 177 140 139 150 158 143 151 180 184 208 224 196 244 185 166 99 137 229 269 359 324 255 235 233 253 206 182 168
270 224 238 301 357 253 179 206 225 112 96 130 157 180 189 173 178 161 144 138 135 162 194 194 230 272 212 258 281 245 198 190 268 376 440 456 365 287 248 225 202 177 167
273 279 301 294 345 327 314 287 290 236 99 108 179 233 257 193 173 177 163 229 174 135 135 138 168 199 200 231 297 223 208 248 337 427 459 428 383 328 282 241 212 204 195

GFSMW_con_3kmhel_339.txt.gz
Helicity
136 185 154 142 226 202 177 174 218 189 209 260 256 251 225 187 123 104 109 101 82 133 162 101 64 61 112 177 123 46 60 56 111 112 73 46 0 -2 16 8 34 53 -12
219 172 110 218 228 225 194 215 245 222 206 297 234 219 224 203 127 114 110 72 64 146 161 123 62 39 119 156 121 106 110 119 92 97 82 71 26 15 30 29 52 42 28
99 205 172 321 238 253 234 239 267 240 253 266 198 213 237 218 185 173 140 84 60 136 119 91 96 102 162 147 158 195 152 99 38 -30 80 74 58 35 24 49 92 87 65
371 248 214 358 325 301 276 280 278 241 235 236 188 200 215 237 144 168 131 90 64 102 78 102 119 164 201 214 174 173 107 73 35 -19 23 25 62 40 39 38 66 88 94
363 398 125 346 319 416 367 367 284 255 235 202 193 224 230 206 172 168 138 106 76 84 73 121 115 172 189 186 183 140 70 48 20 14 33 41 33 23 44 58 59 65 50
349 313 280 154 360 439 426 337 280 270 241 251 260 239 211 183 176 164 129 103 77 101 111 115 116 153 155 147 123 86 68 46 38 40 43 70 59 57 47 54 93 66 36
393 340 291 232 433 518 389 284 272 258 268 260 246 212 189 188 168 159 137 107 93 110 116 137 158 153 109 101 95 63 57 56 45 70 78 83 63 63 57 145 115 85 83
386 277 295 180 226 404 384 281 249 210 283 298 205 222 197 201 177 163 125 87 88 116 129 145 169 140 109 94 84 76 63 83 87 116 110 73 68 67 87 142 162 98 86
369 338 248 275 295 276 348 272 278 219 271 219 214 223 239 212 167 143 111 85 109 122 138 155 173 169 118 99 101 93 78 81 98 143 113 91 76 94 132 189 161 162 132
305 273 316 464 286 226 257 319 246 255 280 181 164 227 218 213 164 125 100 106 112 124 127 132 135 174 194 176 158 122 101 149 135 146 125 104 80 87 102 149 147 139 149
375 333 278 330 282 81 208 241 209 166 77 101 193 236 210 190 151 104 110 127 129 123 116 121 134 138 160 170 189 171 160 177 154 138 125 103 88 93 106 121 135 144 177
508 466 475 439 254 82 188 203 216 191 176 200 257 219 205 179 158 124 150 158 140 128 134 128 124 123 131 148 176 169 155 164 151 154 145 110 98 98 96 101 121 118 118
463 400 410 328 468 240 169 206 257 214 233 233 241 227 197 174 153 178 181 178 158 138 133 130 129 131 131 140 133 138 138 144 150 151 148 124 129 106 100 102 117 130 132
433 461 292 118 349 162 239 233 271 285 213 224 248 216 191 196 211 219 197 186 162 143 137 124 123 134 136 135 140 135 145 151 143 138 134 123 108 94 92 97 106 134 146
341 287 166 51 72 101 226 283 216 227 237 260 215 219 241 237 256 235 213 196 160 142 142 135 132 135 149 145 162 159 160 166 159 154 149 130 106 107 87 107 92 118 141
327 202 124 173 247 300 284 234 263 242 287 267 178 256 276 240 238 247 226 194 159 170 170 156 157 160 163 164 179 183 191 180 191 215 198 198 208 178 151 135 104 92 103
417 396 247 92 181 238 227 234 270 280 283 252 196 268 276 246 252 254 224 203 188 198 186 176 184 163 179 178 198 202 211 199 215 216 205 195 160 181 180 183 163 148 142
442 391 294 283 104 169 149 231 271 252 292 281 233 206 238 266 280 263 235 238 231 220 203 187 199 179 164 176 208 228 221 191 194 184 180 185 168 153 158 153 136 127 147
376 325 181 156 285 124 173 157 213 294 346 256 185 200 265 267 291 270 281 310 286 235 206 194 209 178 177 179 230 244 219 177 167 156 170 171 172 151 158 168 160 159 160
359 342 218 136 173 127 189 170 173 217 275 213 130 251 260 223 251 330 333 308 299 265 213 195 188 190 187 173 228 257 226 192 170 165 169 193 181 165 155 174 185 163 129
412 445 245 187 82 146 184 175 194 174 176 193 243 215 208 244 288 315 298 324 318 283 217 175 202 208 193 180 176 230 246 219 200 202 196 179 192 171 153 152 155 130 150
524 596 483 434 264 175 62 74 109 162 180 199 248 231 226 313 263 278 301 322 293 262 225 212 179 206 209 192 139 167 235 213 224 207 214 198 198 187 162 174 139 128 189
438 522 629 589 575 477 343 262 258 89 141 215 230 281 285 251 251 226 252 270 239 210 192 176 160 195 188 173 166 146 145 224 223 207 214 226 220 203 188 196 182 187 221
241 329 462 626 572 430 380 396 385 292 105 136 157 206 222 264 198 220 238 226 214 195 174 150 154 154 212 181 160 148 117 160 204 257 211 235 250 262 242 264 239 227 208
200 153 227 316 438 450 398 324 416 321 220 174 185 181 228 250 214 214 194 210 187 184 168 132 153 186 201 214 222 217 169 180 181 282 302 362 378 330 296 275 253 226 204
156 178 186 194 241 263 243 252 272 196 118 121 152 152 217 257 168 189 213 260 162 132 120 129 152 130 148 197 222 220 211 221 276 349 334 387 392 383 342 303 259 229 197

GFSMW_con_3kmhel_342.txt.gz
Helicity
339 400 398 212 44 176 234 181 197 153 187 195 199 185 182 159 150 114 118 110 113 131 136 126 166 234 246 168 129 129 117 84 121 147 137 83 24 -15 -15 -14 -14 -12 -8
367 348 363 280 0 121 263 200 211 218 226 246 284 244 245 191 150 130 112 145 137 119 140 135 161 227 211 174 122 108 108 92 83 133 144 74 50 20 13 43 34 12 -3
270 284 277 138 71 91 300 243 216 239 243 293 358 341 312 288 176 142 118 150 143 111 128 127 155 166 181 145 99 109 148 107 49 79 75 79 49 70 11 13 46 57 49
242 395 246 243 77 192 324 246 251 277 300 309 332 359 351 276 200 138 92 121 144 111 126 126 140 149 131 140 115 130 158 122 57 -33 27 56 89 53 45 35 40 54 59
285 357 318 202 192 222 176 267 299 297 274 305 345 378 331 278 205 172 146 125 128 107 118 122 148 129 133 190 175 148 169 124 69 -4 48 62 94 55 51 55 67 57 47
278 338 409 378 301 299 170 113 271 319 276 300 317 300 298 264 208 181 169 125 120 126 133 115 94 103 177 215 172 149 138 110 60 36 34 68 86 46 47 53 86 74 63
372 393 373 377 318 242 122 241 262 329 310 290 304 247 263 248 230 156 163 151 126 151 131 140 105 123 182 182 168 147 105 101 85 37 17 48 81 68 60 102 137 88 75
361 390 340 394 328 283 174 293 311 298 269 318 243 242 254 205 170 163 142 127 99 146 145 115 104 133 149 149 174 132 108 78 73 46 44 63 65 76 86 134 200 115 94
338 277 283 408 325 270 154 277 295 259 259 325 266 240 228 197 145 151 155 98 115 142 155 112 112 124 130 122 141 135 129 126 120 83 94 94 61 55 63 167 263 191 115
264 317 455 391 424 184 163 179 274 295 317 354 270 246 201 176 168 169 146 106 103 168 166 143 124 124 116 107 123 125 117 141 133 128 143 112 77 67 80 177 202 135 114
229 297 428 350 350 334 304 216 299 363 322 336 286 269 210 183 194 173 149 99 124 152 149 180 169 145 136 127 124 117 114 139 156 136 138 119 110 96 109 113 138 100 128
276 300 424 434 401 345 283 377 175 409 307 387 347 285 215 192 196 175 138 123 114 120 133 162 165 164 173 164 151 150 130 159 172 148 135 127 123 127 125 143 138 131 156
315 360 471 422 394 380 274 286 223 205 296 370 388 234 190 170 181 174 159 136 131 115 109 124 143 167 178 179 174 183 170 156 161 163 150 134 138 124 104 117 116 107 129
318 474 470 386 341 257 312 298 245 258 292 323 248 187 174 177 197 186 163 148 121 117 102 98 119 137 162 163 170 170 167 142 133 142 131 123 123 117 110 108 104 111 154
247 236 291 319 357 295 228 122 137 247 230 287 206 207 227 226 219 194 187 171 138 122 114 118 124 132 148 145 160 152 159 148 145 127 114 99 89 95 96 117 110 133 150
398 189 183 208 185 246 225 161 196 215 170 232 210 238 227 248 229 218 205 191 164 148 141 126 133 134 122 127 157 170 169 148 168 144 133 113 107 110 110 97 110 116 159
519 446 433 262 144 72 171 143 233 284 218 182 219 195 179 243 220 251 216 187 169 171 144 147 143 133 130 134 159 179 169 168 162 161 165 141 127 140 144 138 132 119 103
506 500 419 365 119 28 59 126 248 177 123 203 148 211 181 258 245 248 198 190 199 177 174 159 150 149 126 137 161 192 175 169 170 167 173 168 163 151 186 188 171 150 137
536 472 271 139 221 62 95 138 204 252 260 218 191 195 233 244 264 209 207 213 216 198 182 187 190 161 135 135 168 214 192 176 164 160 160 167 170 149 176 208 172 149 129
207 210 309 204 256 58 92 158 200 207 271 269 219 220 264 203 224 254 239 241 221 224 218 197 174 150 136 127 174 217 221 190 170 147 132 147 154 166 186 198 190 167 131
246 264 202 306 249 317 101 130 189 183 225 358 290 167 201 110 157 273 254 267 236 230 228 202 204 179 144 132 148 234 235 202 194 156 139 121 123 171 189 189 195 147 163
447 442 349 341 322 363 351 415 366 305 204 271 245 239 155 69 224 270 275 240 230 232 218 235 225 203 146 141 132 199 224 217 209 177 153 134 131 155 179 188 156 161 178
401 535 520 449 326 247 280 289 547 346 142 187 217 229 26 89 244 227 213 205 206 163 210 226 219 214 147 129 141 167 187 189 188 183 176 159 150 158 170 183 189 192 195
380 473 519 766 624 454 362 268 371 419 195 158 260 155 99 197 237 255 255 249 193 210 211 207 219 225 160 104 138 144 157 197 206 209 168 153 166 188 183 197 199 243 218
88 143 155 452 502 285 263 275 401 500 249 252 189 304 325 291 270 220 263 272 126 200 254 221 217 223 153 118 150 170 164 180 235 264 243 212 211 218 220 205 212 232 249
155 125 104 158 214 199 212 232 196 183 296 268 263 200 153 232 224 257 228 231 131 169 178 193 189 160 142 186 168 157 152 192 271 277 256 233 226 222 238 235 212 230 229

GFSMW_con_3kmhel_345.txt.gz
Helicity
178 398 465 477 433 424 383 201 176 112 179 250 199 140 109 106 90 66 75 87 78 98 151 185 226 253 238 197 226 201 175 106 113 163 164 116 67 24 -11 -6 9 15 10
225 308 385 457 401 372 343 235 148 96 156 204 238 167 140 113 128 111 105 114 122 119 175 207 230 225 249 249 238 213 168 114 110 137 148 83 38 27 12 11 17 31 20
236 259 279 338 396 431 434 379 341 75 212 209 232 210 225 229 205 169 150 120 120 139 177 215 244 240 249 244 187 170 173 143 39 85 55 48 31 56 12 26 24 36 31
170 245 268 272 405 364 309 325 379 155 195 268 252 221 150 174 202 187 165 134 134 156 177 226 226 241 225 213 132 110 145 160 99 21 52 46 53 44 36 25 29 38 49
137 234 253 271 410 381 284 206 392 222 168 287 261 246 212 247 285 246 213 144 131 125 158 204 216 219 190 146 109 102 165 131 105 42 54 49 63 64 28 41 40 37 40
129 176 241 262 289 361 232 266 347 430 274 238 286 244 273 330 290 227 212 145 142 129 155 193 195 187 147 138 107 120 139 129 79 41 61 60 81 46 27 25 67 60 41
156 174 230 240 288 278 384 327 341 365 380 186 306 322 330 344 274 192 199 168 188 150 153 177 164 172 126 127 123 136 125 115 99 86 41 42 45 68 48 47 101 89 66
171 208 244 313 305 359 370 261 94 131 179 87 283 375 346 322 261 218 184 159 177 174 166 159 139 147 125 150 154 154 128 117 89 86 88 59 47 81 86 90 130 91 98
144 220 244 283 318 341 381 276 162 185 128 37 287 343 340 301 268 215 171 163 213 199 180 162 138 111 123 165 188 165 144 117 93 83 63 67 83 80 67 116 185 125 115
109 191 263 294 335 329 362 333 262 153 156 168 305 304 299 296 236 234 174 148 188 190 171 150 120 100 118 159 170 148 145 133 105 89 99 103 113 94 79 109 164 152 110
53 162 236 276 376 405 371 227 141 158 265 299 246 264 267 250 259 197 150 148 192 173 153 147 126 112 140 157 159 148 159 150 147 127 117 102 110 89 69 100 142 158 114
30 147 153 239 365 436 424 378 232 257 233 366 249 221 269 257 219 161 158 165 156 150 139 150 120 120 132 145 144 149 156 165 162 140 124 110 126 106 82 97 123 117 98
57 144 182 193 378 354 398 364 179 173 88 178 235 228 257 216 181 174 168 152 161 161 152 145 111 112 130 143 124 143 157 157 161 177 168 145 139 120 108 104 106 102 113
57 96 113 172 234 349 367 310 274 287 194 219 222 173 228 191 204 172 162 155 158 175 159 126 111 117 135 145 131 134 138 142 146 156 156 162 142 134 131 122 104 119 129
452 175 82 81 112 184 260 273 285 327 177 197 140 189 205 281 205 169 153 159 167 144 148 145 119 127 131 152 161 152 156 158 150 131 132 134 112 121 133 143 113 131 143
439 479 329 156 122 133 212 280 249 261 247 187 137 167 258 304 179 154 160 151 164 167 153 112 104 106 111 117 155 186 177 169 170 150 132 118 110 111 128 119 126 149 186
395 413 361 291 248 97 147 231 246 263 214 194 142 221 293 200 153 165 175 166 164 172 130 114 100 98 116 116 151 182 178 174 159 162 170 146 121 119 118 121 118 104 107
363 378 320 299 263 221 103 125 193 238 244 211 250 311 220 166 225 208 177 188 195 164 155 121 103 116 110 113 144 166 170 167 150 152 161 154 148 128 144 155 146 106 98
245 217 295 245 296 221 221 103 275 179 128 235 241 224 229 196 256 207 182 181 195 174 148 138 141 128 126 121 144 177 175 168 152 137 149 148 149 141 167 179 159 135 123
164 346 302 219 349 319 188 32 60 163 117 187 217 199 207 262 210 154 186 176 184 194 206 178 155 158 152 132 144 175 199 191 171 131 142 143 145 165 184 189 187 159 115
165 262 189 220 346 334 215 187 169 161 127 133 118 125 126 142 169 186 219 219 225 231 214 183 183 160 151 146 150 170 210 196 183 166 138 133 123 149 167 178 197 155 170
452 388 358 280 432 443 271 265 255 377 279 226 197 196 203 161 147 198 246 223 229 192 191 179 179 159 164 153 146 158 195 212 214 177 147 141 131 136 144 171 153 167 180
500 516 489 387 343 298 226 218 546 343 281 183 238 287 341 328 247 292 258 178 216 195 204 195 176 175 186 181 156 160 179 213 213 192 166 162 154 152 150 158 174 217 211
223 358 444 660 492 370 375 329 383 414 409 281 181 220 333 364 211 194 216 197 176 178 207 205 197 204 214 173 218 207 178 216 250 223 182 148 166 183 170 188 187 212 219
116 154 183 328 297 237 241 290 458 436 355 404 301 279 231 300 279 248 137 151 168 205 241 238 240 216 181 189 212 236 221 196 230 294 221 190 181 179 174 174 186 204 224
121 116 113 96 176 178 213 292 254 247 275 259 270 234 190 224 213 168 122 237 165 159 234 216 205 145 154 165 159 168 176 191 325 308 252 202 193 201 191 188 189 211 219

GFSMW_con_3kmhel_351.txt.gz
Helicity
208 172 99 174 206 192 231 320 253 266 318 169 153 135 164 129 134 132 115 94 101 121 142 167 183 127 137 161 148 123 153 105 104 128 110 92 66 47 32 27 34 39 29
121 161 136 138 224 263 229 268 270 279 314 211 144 148 147 136 109 102 156 110 103 114 144 186 204 193 209 209 225 190 164 114 75 91 85 64 33 28 27 25 29 38 28
101 115 140 129 170 207 256 233 303 323 310 268 200 142 146 147 120 107 128 128 141 125 144 175 222 220 229 229 242 230 166 176 83 88 56 40 25 62 26 19 19 28 21
86 113 105 144 150 153 217 253 267 359 385 280 289 167 123 150 133 109 109 144 158 137 142 182 226 246 228 236 233 216 153 186 141 98 39 14 42 35 48 17 13 14 14
81 68 89 104 114 139 207 206 307 362 381 282 141 85 125 131 144 120 104 119 163 148 130 186 228 231 223 227 252 225 180 126 136 133 97 47 34 32 35 53 44 20 12
141 151 112 92 124 135 190 215 323 333 297 335 237 40 -41 121 211 203 175 188 181 201 163 189 208 209 225 263 248 227 176 132 106 115 80 45 40 29 29 36 35 32 24
204 181 158 100 83 128 208 208 293 330 290 205 223 86 -116 130 281 247 277 288 228 215 222 220 200 208 210 212 217 203 159 128 107 126 78 29 14 24 33 32 36 39 30
204 205 192 165 103 99 142 178 243 337 261 151 181 122 27 149 199 278 301 290 285 265 259 241 198 177 185 199 194 169 153 129 84 84 86 38 18 25 36 33 33 37 42
232 190 169 140 128 94 117 187 201 237 236 165 228 171 173 210 278 186 284 279 267 259 265 247 201 163 185 170 147 144 123 98 62 58 58 49 48 30 26 24 24 20 53
160 176 145 116 94 80 108 148 171 187 247 176 284 252 206 263 311 292 271 266 260 219 254 262 196 158 171 159 123 113 97 82 72 53 52 31 21 13 9 24 19 15 7
160 187 154 73 64 62 73 132 168 162 196 219 259 240 262 267 311 293 247 241 280 235 260 265 225 172 164 149 129 110 116 76 69 58 50 36 28 8 19 33 25 28 36
204 228 239 79 -3 32 53 116 133 143 161 162 233 266 300 275 266 228 205 203 230 226 263 252 221 186 151 162 132 111 111 96 95 77 59 41 54 25 16 51 42 38 47
259 345 335 146 -18 -31 56 102 122 108 152 171 182 230 226 211 281 367 288 252 247 215 223 212 208 190 197 176 130 107 119 94 97 84 92 84 78 58 51 75 62 60 69
269 320 318 327 76 9 39 95 99 101 132 213 247 268 236 250 247 283 362 278 199 199 180 229 204 189 198 181 155 113 113 90 78 98 126 105 101 97 93 102 82 83 84
346 318 319 332 336 94 95 98 78 69 113 159 195 212 242 223 242 313 313 243 189 150 150 221 200 184 203 207 182 133 127 93 87 106 112 121 101 102 114 131 101 102 91
341 348 339 413 420 375 204 119 101 111 155 153 159 139 243 277 250 267 350 215 158 114 159 158 203 192 198 169 202 175 133 98 105 125 109 113 113 111 118 114 108 93 115
349 318 355 321 346 343 318 226 131 171 185 148 136 210 245 311 249 219 210 187 91 116 133 150 206 165 152 171 191 195 144 146 142 123 120 120 114 111 99 93 101 95 107
367 359 351 305 297 254 252 239 162 116 158 143 152 164 211 233 252 247 119 35 93 119 154 165 171 161 148 175 185 189 140 139 109 113 105 106 117 126 141 129 118 106 101
342 356 331 256 243 246 306 237 186 108 159 146 184 179 234 218 205 179 130 74 62 152 151 164 200 156 156 168 191 199 139 103 93 111 105 102 111 140 175 161 143 125 117
438 463 375 300 308 315 328 211 212 222 259 245 134 209 267 288 282 162 121 154 165 187 188 183 169 186 187 167 170 165 171 123 135 114 100 119 117 171 212 162 154 132 133
593 522 427 376 383 428 406 313 245 236 217 150 109 140 203 321 379 245 204 230 235 215 189 121 101 141 172 157 145 149 164 159 159 146 144 146 156 178 200 177 165 139 138
700 686 495 403 433 575 575 451 371 329 229 128 8 47 172 199 266 316 266 120 228 260 198 150 125 151 147 145 122 119 144 168 165 158 166 169 173 183 184 190 176 202 202
437 446 367 449 468 452 547 650 554 423 273 148 234 50 122 169 260 390 257 223 219 238 302 212 164 160 176 149 124 119 138 169 159 158 168 201 189 186 181 195 232 250 220
231 172 181 243 279 300 315 399 441 420 355 287 341 335 121 213 276 292 232 227 330 272 106 165 194 193 207 201 185 155 144 195 173 200 215 228 234 238 219 252 260 245 236
163 189 152 124 177 241 241 270 295 333 294 333 416 468 423 161 201 201 197 179 161 98 218 191 210 220 213 196 196 216 201 193 191 242 245 264 282 291 293 277 288 263 246
98 141 155 122 176 182 204 277 245 193 189 175 283 308 297 302 203 126 134 194 80 149 165 141 232 214 134 123 141 150 174 201 233 299 312 282 279 294 368 322 363 297 206